STARLINK-1226, 45229

Orbit data source: Space-Track

STARLINK-1226, 45229 is a payload satellite owned by SpaceX/Seattle (US) in LEO that was launched on Mon, 17 Feb 2020 UTC via an FALCON 9 launch vehicle from the Air Force Eastern Test Range (AFETR). Payload-class satellites include a variety of spacecraft equipped with specific instruments for various scientific and technological missions. These include communications satellites like Starlink; space stations such as the ISS; scientific satellites like the Hubble; Earth observation satellites from companies like Planet Labs, Umbra, and HawkEye 360; GPS; miniature CubeSats for education and research; and military/defense satellites.

Loading next visibility...
Identifier
45229, 2020-012BD
Orbit
LEO
Country
Flag of USUS
Related business
Manufacturer
SpaceX/Seattle
Mission
Partially operational Commercial Communications
Bus & Motor
STARLINK, Unknown motor
Mass
260 kg wet, ~248 kg dry
Launch date (UTC)
2020-02-17 (6 years ago)
Launch vehicle
FALCON 9
Launch site
Air Force Eastern Test Range (AFETR)
Object type
Payload
Rocket body
Debris
Shape & HBR
Box + 1 Pan, 10.1 m
Radar Cross Section
13.562 m², Large (>1 m²)

Expand to show TLE details & history
Last TLE update: 9 hours ago

TLE from 9 hours ago
0 STARLINK-1226
1 45229U 20012BD  26169.91559753  .00038508  00000-0  79811-3 0  9998
2 45229  53.1545 241.9416 0004584 330.6878  29.3871 15.45382797351000
Epoch: 2026-06-18T21:58Z
TLE epoch observation values (Epoch: 2026-06-18T21:58:27.626Z)
Latitude
-0.00007°
Longitude
5.17437°
Altitude
428.44 km
Speed
7.657 km/s
True Right ascension
16h 07m 45s
True Declination
0° 00' 00"
Sunlit
Object was in full shadow at epoch
Visualization orbit readout
Latitude
Unknown
Longitude
Unknown
Altitude
Unknown
Speed
Unknown
Apparent Right ascension
Unknown
Apparent Declination
Unknown
Sunlit
N/A
Visualization observer readout
Local Sidereal Time
17:58:04
Azimuth
Unknown
Elevation
Unknown
Doppler factor
Unknown
Orbital elements
Apogee altitude
433.634 km
Perigee altitude
427.391 km
Semi-major axis
6,808.649 km
Eccentricity
0.00046
Inclination
53.1545°
RAAN
241.9416°
Arg. of periapsis
330.6878°
True anomaly
29.41289°
Mean anomaly
29.3871°
Eccentric anomaly
29.39999°
Mean motion
3.86324 °/min
Orbital period
93.19 mins
BSTAR
0.00079811
Loading maneuver chart data...
Computing Atmospheric mass density...

Documentation

Showing up to 5 results
|